ONEWEB-0545, 54647

Orbit data source: Space-Track

ONEWEB-0545, 54647 is a payload satellite owned by One Web (NAA) (UK) in LEO that was launched on Thu, 08 Dec 2022 UTC via an FALCON 9 launch vehicle from the Air Force Eastern Test Range (AFETR). Payload-class satellites include a variety of spacecraft equipped with specific instruments for various scientific and technological missions. These include communications satellites like Starlink; space stations such as the ISS; scientific satellites like the Hubble; Earth observation satellites from companies like Planet Labs, Umbra, and HawkEye 360; GPS; miniature CubeSats for education and research; and military/defense satellites.

Loading next visibility...
Identifier
54647, 2022-166F
Orbit
LEO
Country
Flag of UKUK
Related business
Manufacturer
One Web
Mission
Operational Commercial Communications
Bus & Motor
ARROW, Unknown motor
Mass
148 kg wet, ~140 kg dry
Launch date (UTC)
2022-12-08 (4 years ago)
Launch vehicle
FALCON 9
Launch site
Air Force Eastern Test Range (AFETR)
Object type
Payload
Rocket body
Debris
Shape & HBR
Trap Box + 2 Pan, 6.7 m
Radar Cross Section
3.464 m², Large (>1 m²)

Expand to show TLE details & history
Last TLE update: 2 days ago

TLE from 2 days ago
0 ONEWEB-0545
1 54647U 22166F   26171.44504735  .00000041  00000-0  68702-4 0  9994
2 54647  87.9251 243.3339 0002012  82.0967 278.0395 13.21828030171937
Epoch: 2026-06-20T10:40Z
TLE epoch observation values (Epoch: 2026-06-20T10:40:52.091Z)
Latitude
-0.00002°
Longitude
174.45728°
Altitude
1,180.438 km
Speed
7.263 km/s
True Right ascension
16h 13m 20s
True Declination
0° 00' 00"
Sunlit
Object was in full shadow at epoch
Visualization orbit readout
Latitude
Unknown
Longitude
Unknown
Altitude
Unknown
Speed
Unknown
Apparent Right ascension
Unknown
Apparent Declination
Unknown
Sunlit
N/A
Visualization observer readout
Local Sidereal Time
00:35:56
Azimuth
Unknown
Elevation
Unknown
Doppler factor
Unknown
Orbital elements
Apogee altitude
1,176.368 km
Perigee altitude
1,173.329 km
Semi-major axis
7,552.985 km
Eccentricity
0.0002
Inclination
87.9251°
RAAN
243.3339°
Arg. of periapsis
82.0967°
True anomaly
278.01667°
Mean anomaly
278.0395°
Eccentric anomaly
278.02809°
Mean motion
3.30647 °/min
Orbital period
108.88 mins
BSTAR
0.000068702
Loading maneuver chart data...
Computing Atmospheric mass density...
Loading historical data...
Loading historical data...
Loading historical data...
Loading historical data...
Loading historical data...
Loading historical data...
Loading historical data...

Documentation

Showing up to 5 results
|